CZ-6A DEB

Satellite information

Favourite Embed

Satellite Type and Status

DEBRISIN ORBIT

Key statistics

Satellite CZ-6A DEB at a glance.

Uptime

908

Days in orbit

Revolutions

≈ 14.4

Per day

Orbit

SSO

Sun Synchronous Orbit

Inclination

98.7

Latest

Satellite identification and parameters

Extended collection of information and parameters for CZ-6A DEB.

Object identification

Identified? True

Debris? True

Object name: CZ-6A DEB

International designator: 2022-151HG

Object number (NORAD): 54480

Object ID (CCSDS): 54480

Country: PEOPLES REPUBLIC OF CHINA (PRC)

Current information (Y/N): Y

RCS size: SMALL

Orbital parameters

Period: 100.178 minutes

Inclination: 98.6541 deg

SMA: 7145.081 km

Apoapsis: 860.47 km

Periapsis: 673.421 km

RAAN: 155.2145 deg

Eccentricy: 0.0130893

Argument of periapsis: 141.7629 deg

Mean anomaly: 219.293 deg

Mean motion: 14.37447758 rev/day

Mean motion (dot): 0.00000841 rev/day2

B* drag term: 0.00026914 1/REarth

Two-line elements (TLE)

Creation date: May 7, 2025, 3:14 a.m.

Reference frame: TEME

Reference center: EARTH

Epoch: May 6, 2025, 3:02 p.m. UTC

TLE line 0: 0 CZ-6A DEB

TLE line 1: 1 54480U 22151HG 25126.62696156 .00000841 00000-0 26914-3 0 9997

TLE line 2: 2 54480 98.6541 155.2145 0130893 141.7629 219.2930 14.37447758129898

Live tracking on map

Real-time ground track for satellite CZ-6A DEB.

In-orbit conjunctions

A list of the most updated potential collisions computed for object CZ-6A DEB.

Target Orbit TCA Probability of collision Miss distance Type
ELECTRON KICK STAGE R/B SSO 2024-09-02 18:21:54 0.000582233 132.0 (m) ROCKET BODY
COSMOS 374 DEB LEO 2024-07-02 05:10:43 0.0001041633 425.0 (m) DEBRIS

Associated space launch

Chinese satellite reported for atmospheric/ocean/environmental/spatial parameter research purposes, details TBD.

CZ-6A DEB was lifted into orbit during the mission ‘Long March 6A | Yunhai 3’, on board a Long March 6A space rocket.

The launch took place on Nov. 11, 2022, 10:52 p.m. from Launch Complex 9A.

For more information about the launch, click the button.

Launch to space Long March 6A | Yunhai 3
Long March 6A | Yunhai 3

Agency: N/A

Status: Launch Successful

Launch date: Nov. 11, 2022, 10:52 p.m. UTC

Rocket: Long March 6A

Launch pad: Launch Complex 9A

Location: Taiyuan Satellite Launch Center, People's Republic of China

...

Latest news about this satellite

There are no fresh news available about this satellite. Check back as we update our databases every day.


Newsletter sign-up

Weekly statistics, charts and insights to help you stay on top of the space industry.